Lid_Strength_Index
3 3 2 3 4 5 7 8 14 8 8 13 15 14 15 13 13 11 12 12 12 13 12 13 13 12 10 8 8 10 8 12 15 13 10 8 10 13 13 17 17 16 17 16
3 3 3 3 4 5 8 10 11 8 9 14 15 15 15 13 13 13 13 13 11 10 12 14 12 11 8 8 9 10 9 12 16 14 12 10 11 11 11 13 14 17 19 18
3 3 3 3 4 5 7 11 15 13 11 12 13 15 15 15 12 13 12 11 9 11 13 11 13 11 9 8 9 8 9 11 14 17 14 12 14 12 12 13 17 17 17 15
3 3 3 3 4 5 7 10 14 15 15 14 13 13 14 15 15 13 11 12 11 11 14 13 13 11 10 9 9 9 10 14 13 12 12 12 13 13 13 14 14 17 15 15
3 3 3 3 4 5 8 13 14 14 16 13 14 14 15 15 14 13 13 12 10 10 13 12 13 11 12 12 10 11 10 14 13 15 12 12 14 12 12 13 14 15 14 14
3 3 3 3 4 6 9 12 12 10 14 14 14 14 13 14 13 12 10 10 10 11 10 8 8 8 9 11 12 13 13 13 15 16 12 13 16 13 13 12 13 15 17 15
3 3 3 4 4 6 9 11 11 11 15 14 14 15 13 14 13 13 11 9 10 9 7 8 9 10 11 12 12 11 13 13 14 16 14 19 13 11 11 12 13 14 15 14
3 4 3 4 4 5 9 11 10 10 15 14 15 14 14 13 12 12 11 9 8 8 9 13 14 14 16 14 12 11 11 13 15 16 17 13 12 12 13 14 13 14 15 14
3 3 3 4 4 5 10 10 9 9 13 14 13 14 13 13 13 13 12 10 9 9 12 13 17 17 19 16 15 11 11 11 14 15 17 19 13 11 10 12 15 11 13 15
3 4 4 4 4 5 8 10 10 9 12 13 12 13 13 12 12 12 14 12 12 11 12 14 15 15 17 17 19 15 14 13 15 16 16 14 11 11 11 15 15 11 12 14
3 3 4 4 5 5 7 11 11 9 12 14 13 13 14 13 12 12 14 12 13 13 14 14 14 16 14 17 15 15 14 14 14 15 17 17 11 10 13 12 11 12 12 12
3 3 4 4 4 5 7 12 12 10 12 14 12 12 12 12 12 11 13 13 13 11 13 14 13 15 15 16 17 14 16 12 12 13 12 10 10 11 10 11 12 12 13 12
3 3 3 4 4 5 7 11 12 11 14 15 13 14 12 10 10 10 11 12 12 13 12 12 13 15 14 16 16 16 14 12 12 12 10 10 10 11 12 12 13 12 13 13
3 3 4 4 5 5 8 11 11 9 12 14 16 12 14 10 10 10 10 11 11 12 12 13 13 14 13 14 15 16 13 13 13 12 11 11 12 13 12 12 12 13 13 13
3 3 3 4 5 5 10 10 10 9 10 14 16 14 13 11 11 12 11 11 12 12 15 15 15 14 15 14 16 17 13 14 15 15 12 12 12 12 13 13 14 14 14 13
3 3 3 4 5 7 9 13 9 11 11 14 16 15 15 13 12 12 13 12 12 12 14 15 15 14 16 18 18 14 13 13 12 13 13 12 13 13 14 14 15 15 15 16
2 2 3 4 6 8 12 12 10 11 9 13 18 18 16 13 13 13 13 13 13 13 14 16 16 16 15 18 19 14 14 13 13 13 14 14 14 14 15 16 15 16 17 18
2 3 4 5 6 9 12 11 10 10 13 13 18 19 18 14 16 17 13 15 14 15 15 15 17 16 17 20 16 14 15 15 15 15 14 15 17 17 17 18 18 18 18 18
2 4 5 7 11 13 13 10 12 11 12 14 16 18 19 15 15 15 15 15 18 16 18 17 18 18 21 17 15 15 14 15 14 17 20 22 21 19 20 20 20 19 19 19
4 7 13 13 13 10 9 12 13 13 14 15 14 17 20 16 16 17 17 16 18 20 19 19 21 19 16 15 15 15 16 16 19 21 20 23 21 21 22 21 22 21 19 21
9 13 14 12 9 12 14 16 14 14 16 15 17 17 20 16 17 17 16 19 20 21 21 21 18 20 16 16 17 15 18 18 19 20 20 21 19 19 21 23 23 22 22 22
10 12 12 13 13 14 15 16 21 19 17 19 19 19 17 18 15 17 19 21 23 21 24 22 20 15 15 18 20 21 20 21 22 24 22 23 21 23 24 22 22 22 23 23
9 12 15 13 16 16 17 21 21 19 21 21 20 20 20 20 18 20 20 22 22 26 24 20 16 14 17 18 22 25 26 25 23 24 24 23 24 27 26 24 25 23 24 24
12 14 19 14 18 17 16 16 19 18 19 19 17 21 18 19 19 20 19 25 24 23 23 19 13 15 17 20 22 24 25 25 24 23 23 24 25 26 27 27 24 23 24 25
12 12 15 16 16 20 18 18 20 20 17 18 19 19 18 21 23 21 24 26 23 20 17 13 12 17 18 20 22 22 23 24 24 23 23 24 24 25 25 25 23 22 24 23
13 14 17 18 17 22 21 19 20 17 16 15 15 20 19 20 21 23 21 19 20 15 14 11 17 20 20 20 21 21 21 22 22 23 23 23 24 23 22 24 23 23 23 24
15 17 20 15 15 18 19 18 19 15 16 16 18 19 18 24 21 21 17 18 13 12 13 16 17 18 20 21 22 23 22 21 22 23 23 23 24 24 23 22 23 22 23 24